User: anonymous
Location: Skalnate Pleso
(49.1889°N, 20.2450°E)
Time: 13:32:56
(UTC+02:00)
Language:

Iridium 45 - Orbit

View from above orbital plane
View from above orbital plane
View from above satellite
View from above satellite

Ground track
Ground track

The orbit data is extracted from the following two-line orbital elements,

1 25104U 97082A   14259.25533644  .00000377  00000-0  12770-3 0  8908
2 25104 087.0289 327.3564 0002314 100.4325 259.7133 14.34235525876334
Epoch (UTC): 16 September 2014 06:07:41
Eccentricity: 0.0002314
inclination: 87.0289°
perigee height: 776 km
apogee height: 779 km
right ascension of ascending node: 327.3564°
argument of perigee: 100.4325°
revolutions per day: 14.34235525
mean anomaly at epoch: 259.7133°
orbit number at epoch: 87633

The dashed part of the orbit path shows where the satellite is in the earth's shadow,  

DLR